Nebraska City, NE

7:08 AM CST on December 16, 2017 (GMT -0600)
Nebraska City Municipal

Weather History for KAFK - September, 2013

Change the Weather History Date:

Thursday, September 26, 2013

  Actual Average (KSDA) Record (KSDA)
Temperature  
Mean Temperature 73 °F -  
Max Temperature 86 °F 76 °F 93 °F (1956)
Min Temperature 60 °F 47 °F 29 °F (1980)
Cooling Degree Days 8    
Growing Degree Days 23 (Base 50)    
Moisture  
Dew Point 58 °F    
Average Humidity 64    
Maximum Humidity 100    
Minimum Humidity 34    
Precipitation  
Precipitation 0.00 in - - ()
Sea Level Pressure  
Sea Level Pressure 29.82 in    
Wind  
Wind Speed 14 mph (SSE)    
Max Wind Speed 25 mph    
Max Gust Speed 34 mph    
Visibility 10 miles    
Events      
Averages and records for this station are not official NWS values.
T = Trace of Precipitation, MM = Missing Value Source: NWS Daily Summary

Daily Weather History Graph

Daily Weather History Graph

Search for Another Location

Airport or City:

Trip Planner

Search our weather history database for the weather conditions in past years. The results will help you decide how hot, cold, wet, or windy it might be!

Date:

Astronomy

Sep. 26, 2013 Rise Set
Actual Time 7:15 AM CDT 7:13 PM CDT
Civil Twilight 6:47 AM CDT 7:40 PM CDT
Nautical Twilight 6:16 AM CDT 8:12 PM CDT
Astronomical Twilight 5:43 AM CDT 8:44 PM CDT
Moon No Moon Rise 2:09 PM CDT (9/26)
Length of Visible Light 12h 52m
Length of Day
11h 58m
Waning Gibbous, 54% of the Moon is Illuminated
Sep 26
Waning Gibbous
Sep 26
Last Quarter
Oct 4
New
Oct 11
First Quarter
Oct 18
Full

Hourly Weather History & Observations

Time (CDT) Temp. Heat Index Dew Point Humidity Pressure Visibility Wind Dir Wind Speed Gust Speed Precip Events Conditions
12:15 AM 65.3 °F - 59.4 °F 81% 29.82 in 10.0 mi SSE 13.8 mph 19.6 mph N/A   Clear
12:35 AM 65.3 °F - 59.0 °F 80% 29.82 in 10.0 mi South 11.5 mph - N/A   Clear
12:55 AM 64.9 °F - 58.6 °F 80% 29.82 in 10.0 mi SSE 11.5 mph - N/A   Clear
1:15 AM 64.4 °F - 58.5 °F 81% 29.82 in 10.0 mi South 11.5 mph - N/A   Clear
1:35 AM 63.9 °F - 58.1 °F 81% 29.82 in 10.0 mi South 11.5 mph - N/A   Clear
1:55 AM 63.5 °F - 58.1 °F 83% 29.82 in 10.0 mi SSE 13.8 mph 17.3 mph N/A   Clear
2:15 AM 63.0 °F - 58.1 °F 84% 29.81 in 10.0 mi SSE 10.4 mph - N/A   Clear
2:35 AM 62.6 °F - 58.1 °F 85% 29.82 in 10.0 mi SSE 9.2 mph - N/A   Clear
2:55 AM 62.8 °F - 58.3 °F 85% 29.81 in 10.0 mi SSE 9.2 mph 17.3 mph N/A   Clear
3:15 AM 62.6 °F - 58.6 °F 87% 29.81 in 10.0 mi SSE 9.2 mph - N/A   Clear
3:35 AM 62.1 °F - 58.6 °F 89% 29.81 in 10.0 mi SSE 10.4 mph - N/A   Clear
3:55 AM 61.7 °F - 60.6 °F 96% 29.81 in 10.0 mi SSE 10.4 mph - N/A   Clear
4:15 AM 60.8 °F - 60.6 °F 99% 29.81 in 10.0 mi South 8.1 mph - N/A   Clear
4:35 AM 61.2 °F - 61.2 °F 100% 29.81 in 10.0 mi SSE 8.1 mph - N/A   Clear
4:55 AM 60.8 °F - 60.8 °F 100% 29.81 in 10.0 mi SSE 8.1 mph - N/A   Clear
5:15 AM 61.0 °F - 61.0 °F 100% 29.82 in 10.0 mi SSE 8.1 mph - N/A   Clear
5:35 AM 60.8 °F - 60.8 °F 100% 29.82 in 10.0 mi SSE 8.1 mph - N/A   Clear
5:55 AM 61.0 °F - 61.0 °F 100% 29.81 in 10.0 mi SSE 10.4 mph - N/A   Clear
6:15 AM 61.0 °F - 61.0 °F 100% 29.82 in 10.0 mi SSE 8.1 mph - N/A   Clear
6:35 AM 61.0 °F - 61.0 °F 100% 29.82 in 10.0 mi SSE 10.4 mph - N/A   Clear
6:55 AM 61.0 °F - 61.0 °F 100% 29.82 in 10.0 mi SSE 11.5 mph - N/A   Clear
7:15 AM 61.2 °F - 61.2 °F 100% 29.82 in 10.0 mi South 13.8 mph - N/A   Clear
7:35 AM 61.9 °F - 61.9 °F 100% 29.83 in 10.0 mi SSE 12.7 mph 19.6 mph N/A   Clear
7:55 AM 62.6 °F - 62.1 °F 98% 29.83 in 10.0 mi SSE 15.0 mph 19.6 mph N/A   Clear
8:15 AM 63.7 °F - 61.9 °F 94% 29.83 in 10.0 mi SSE 16.1 mph - N/A   Clear
8:35 AM 65.3 °F - 59.9 °F 83% 29.84 in 10.0 mi SSE 13.8 mph 20.7 mph N/A   Clear
8:55 AM 66.4 °F - 60.3 °F 81% 29.84 in 10.0 mi SSE 15.0 mph - N/A   Clear
9:15 AM 68.5 °F - 60.1 °F 74% 29.84 in 10.0 mi SSE 18.4 mph 25.3 mph N/A   Clear
9:35 AM 70.0 °F - 59.7 °F 70% 29.85 in 10.0 mi South 18.4 mph 29.9 mph N/A   Clear
9:55 AM 71.8 °F - 59.5 °F 65% 29.85 in 10.0 mi South 21.9 mph 29.9 mph N/A   Clear
10:15 AM 73.4 °F - 59.4 °F 61% 29.84 in 10.0 mi SSE 21.9 mph 31.1 mph N/A   Clear
10:35 AM 74.8 °F - 59.0 °F 58% 29.84 in 10.0 mi SSE 23.0 mph 29.9 mph N/A   Clear
10:55 AM 76.1 °F - 58.6 °F 55% 29.84 in 10.0 mi SSE 24.2 mph 31.1 mph N/A   Clear
11:15 AM 77.0 °F - 57.9 °F 52% 29.84 in 10.0 mi SSE 23.0 mph 32.2 mph N/A   Clear
11:35 AM 78.3 °F - 57.2 °F 48% 29.83 in 10.0 mi SSE 23.0 mph 32.2 mph N/A   Clear
11:55 AM 79.9 °F - 56.8 °F 45% 29.83 in 10.0 mi South 25.3 mph 34.5 mph N/A   Clear
12:15 PM 80.8 °F 80.7 °F 55.4 °F 42% 29.83 in 10.0 mi South 24.2 mph 31.1 mph N/A   Clear
12:35 PM 81.9 °F 81.2 °F 54.7 °F 39% 29.82 in 10.0 mi SSE 23.0 mph 33.4 mph N/A   Clear
12:55 PM 82.6 °F 81.7 °F 54.5 °F 38% 29.82 in 10.0 mi SSE 19.6 mph 31.1 mph N/A   Clear
1:15 PM 83.8 °F 82.6 °F 54.0 °F 36% 29.81 in 10.0 mi SSE 24.2 mph 31.1 mph N/A   Clear
1:35 PM 85.1 °F 83.6 °F 54.5 °F 35% 29.81 in 10.0 mi SSE 23.0 mph 29.9 mph N/A   Clear
1:55 PM 85.1 °F 83.6 °F 54.5 °F 35% 29.80 in 10.0 mi SSE 19.6 mph 34.5 mph N/A   Clear
2:15 PM 85.5 °F 83.8 °F 54.3 °F 34% 29.79 in 10.0 mi SSE 20.7 mph 31.1 mph N/A   Clear
2:35 PM 86.0 °F 84.3 °F 54.3 °F 34% 29.79 in 10.0 mi SSE 21.9 mph 29.9 mph N/A   Clear
2:55 PM 86.4 °F 84.7 °F 54.9 °F 34% 29.79 in 10.0 mi South 23.0 mph 32.2 mph N/A   Clear
3:15 PM 86.0 °F 84.3 °F 54.7 °F 34% 29.79 in 10.0 mi SSE 20.7 mph 31.1 mph N/A   Clear
3:35 PM 86.2 °F 84.5 °F 55.0 °F 34% 29.78 in 10.0 mi SSE 21.9 mph 29.9 mph N/A   Clear
3:55 PM 86.7 °F 85.1 °F 55.6 °F 34% 29.78 in 10.0 mi SSE 25.3 mph 31.1 mph N/A   Clear
4:15 PM 86.2 °F 84.7 °F 55.6 °F 35% 29.77 in 10.0 mi SSE 21.9 mph 28.8 mph N/A   Clear
4:35 PM 86.2 °F 84.7 °F 55.4 °F 35% 29.77 in 10.0 mi South 25.3 mph 34.5 mph N/A   Clear
4:55 PM 85.8 °F 84.3 °F 55.6 °F 35% 29.78 in 10.0 mi South 23.0 mph 31.1 mph N/A   Clear
5:15 PM 85.1 °F 83.9 °F 55.8 °F 37% 29.78 in 10.0 mi SSE 16.1 mph 31.1 mph N/A   Clear
5:35 PM 84.6 °F 83.4 °F 55.9 °F 37% 29.78 in 10.0 mi SSE 19.6 mph 32.2 mph N/A   Clear
5:55 PM 83.8 °F 83.0 °F 56.3 °F 39% 29.78 in 10.0 mi SE 18.4 mph 28.8 mph N/A   Clear
6:15 PM 82.6 °F 82.2 °F 57.2 °F 42% 29.78 in 10.0 mi SSE 16.1 mph 24.2 mph N/A   Clear
6:35 PM 81.5 °F 81.4 °F 57.2 °F 43% 29.78 in 10.0 mi SSE 16.1 mph 21.9 mph N/A   Clear
6:55 PM 80.2 °F 80.5 °F 57.2 °F 45% 29.79 in 10.0 mi SSE 12.7 mph 20.7 mph N/A   Clear
7:15 PM 79.3 °F - 57.0 °F 46% 29.79 in 10.0 mi SE 12.7 mph 21.9 mph N/A   Clear
7:35 PM 78.1 °F - 57.7 °F 49% 29.79 in 10.0 mi SE 11.5 mph 20.7 mph N/A   Clear
7:55 PM 77.4 °F - 58.1 °F 51% 29.80 in 10.0 mi SSE 13.8 mph 19.6 mph N/A   Clear
8:15 PM 76.3 °F - 58.1 °F 53% 29.81 in 10.0 mi SSE 13.8 mph 19.6 mph N/A   Clear
8:35 PM 75.7 °F - 58.3 °F 55% 29.81 in 10.0 mi SSE 11.5 mph 17.3 mph N/A   Clear
8:55 PM 75.2 °F - 58.6 °F 56% 29.82 in 10.0 mi SSE 12.7 mph 20.7 mph N/A   Clear
9:15 PM 74.8 °F - 58.8 °F 57% 29.83 in 10.0 mi SSE 12.7 mph - N/A   Clear
9:35 PM 73.8 °F - 59.0 °F 60% 29.84 in 10.0 mi SSE 11.5 mph 17.3 mph N/A   Clear
9:55 PM 73.4 °F - 59.0 °F 61% 29.84 in 10.0 mi SSE 12.7 mph - N/A   Clear
10:15 PM 72.9 °F - 59.0 °F 62% 29.84 in 10.0 mi SSE 11.5 mph 19.6 mph N/A   Clear
10:35 PM 72.9 °F - 58.6 °F 61% 29.84 in 10.0 mi SSE 11.5 mph 19.6 mph N/A   Clear
10:55 PM 72.5 °F - 58.8 °F 62% 29.84 in 10.0 mi SSE 12.7 mph 17.3 mph N/A   Clear
11:15 PM 72.3 °F - 59.0 °F 63% 29.85 in 10.0 mi SSE 12.7 mph 18.4 mph N/A   Clear
11:35 PM 72.5 °F - 58.8 °F 62% 29.85 in 10.0 mi SSE 13.8 mph 19.6 mph N/A   Clear
11:55 PM 72.1 °F - 59.0 °F 63% 29.85 in 10.0 mi SSE 13.8 mph 18.4 mph N/A   Clear